Change the Weather History Date:

Saturday, April 27, 2013

  Actual Average Record
Temperature  
Mean Temperature 44 °F 47 °F  
Max Temperature 60 °F 59 °F 86 °F (1962)
Min Temperature 27 °F 36 °F 17 °F (1966)
Degree Days  
Heating Degree Days 21 18  
Month to date heating degree days 693 627  
Since 1 July heating degree days 7306 7652  
Cooling Degree Days 0 0  
Month to date cooling degree days 0 0  
Year to date cooling degree days 0 0  
Moisture  
Dew Point 28 °F    
Average Humidity 62    
Maximum Humidity 100    
Minimum Humidity 24    
Precipitation  
Precipitation 0.00 in 0.09 in 0.69 in (1954)
Month to date precipitation 1.95 2.37  
Year to date precipitation 5.08 9.25  
Sea Level Pressure  
Sea Level Pressure 30.44 in    
Wind  
Wind Speed 1 mph (NNW)    
Max Wind Speed 13 mph    
Max Gust Speed 18 mph    
Visibility 6 miles    
Events Fog    
T = Trace of Precipitation, MM = Missing Value Source: NWS Daily Summary

Daily Weather History Graph

Daily Weather History Graph

Search for Another Location

Airport or City:

Trip Planner

Search our weather history database for the weather conditions in past years. The results will help you decide how hot, cold, wet, or windy it might be!

Date:

Astronomy

Apr. 27, 2013 Rise Set
Actual Time 5:47 AM EDT 7:49 PM EDT
Civil Twilight 5:15 AM EDT 8:20 PM EDT
Nautical Twilight 4:37 AM EDT 8:59 PM EDT
Astronomical Twilight 3:54 AM EDT 9:42 PM EDT
Moon 10:19 PM EDT (4/27) 6:59 AM EDT (4/27)
Length of Visible Light 15h 05m
Length of Day
14h 02m
Waning Gibbous, 95% of the Moon is Illuminated
Apr 27
Waning Gibbous
May 2
Last Quarter
May 9
New
May 18
First Quarter
May 25
Full

Hourly Weather History & Observations

Time (EDT) Temp. Dew Point Humidity Pressure Visibility Wind Dir Wind Speed Gust Speed Precip Events Conditions
12:51 AM 33.1 °F 30.9 °F 92% 30.51 in 10.0 mi Calm Calm - N/A   Clear
1:51 AM 33.1 °F 30.9 °F 92% 30.50 in 10.0 mi Calm Calm - N/A   Clear
2:51 AM 30.0 °F 28.9 °F 96% 30.49 in 8.0 mi Calm Calm - N/A   Clear
3:38 AM 28.4 °F 26.6 °F 93% 30.45 in 9.0 mi Calm Calm - N/A   Scattered Clouds
3:43 AM 30.2 °F 28.4 °F 93% 30.46 in 2.0 mi Calm Calm - N/A   Mostly Cloudy
3:45 AM 30.2 °F 28.4 °F 93% 30.46 in 0.8 mi Calm Calm - N/A   Mist
3:51 AM 30.0 °F 28.9 °F 96% 30.49 in 0.2 mi Calm Calm - N/A Fog Light Freezing Fog
4:51 AM 28.0 °F 27.0 °F 96% 30.49 in 0.5 mi Calm Calm - N/A Fog Light Freezing Fog
4:56 AM 26.6 °F 26.6 °F 100% 30.45 in 1.2 mi Calm Calm - N/A   Overcast
4:58 AM 26.6 °F 26.6 °F 100% 30.45 in 2.0 mi Calm Calm - N/A   Overcast
5:03 AM 28.4 °F 26.6 °F 93% 30.45 in 1.2 mi Calm Calm - N/A   Overcast
5:10 AM 28.4 °F 28.4 °F 100% 30.45 in 0.2 mi Calm Calm - N/A Fog Light Freezing Fog
5:51 AM 28.0 °F 27.0 °F 96% 30.49 in 1.0 mi Calm Calm - N/A   Mist
6:03 AM 28.4 °F 28.4 °F 100% 30.46 in 0.2 mi Calm Calm - N/A Fog Light Freezing Fog
6:51 AM 28.9 °F 28.9 °F 100% 30.51 in 0.2 mi Calm Calm - N/A Fog Light Freezing Fog
7:51 AM 30.9 °F 30.9 °F 100% 30.51 in 0.2 mi Calm Calm - N/A Fog Light Freezing Fog
8:15 AM 33.8 °F 33.8 °F 100% 30.46 in 1.2 mi Calm Calm - N/A   Overcast
8:17 AM 33.8 °F 33.8 °F 100% 30.46 in 2.0 mi Calm Calm - N/A   Overcast
8:27 AM 35.6 °F 35.6 °F 100% 30.47 in 5.0 mi Calm Calm - N/A   Mostly Cloudy
8:39 AM 35.6 °F 35.6 °F 100% 30.47 in 9.0 mi Calm Calm - N/A   Scattered Clouds
8:51 AM 37.0 °F 35.1 °F 93% 30.51 in 9.0 mi Calm Calm - N/A   Clear
9:51 AM 45.0 °F 35.1 °F 68% 30.49 in 10.0 mi Calm Calm - N/A   Clear
10:51 AM 50.0 °F 30.0 °F 46% 30.48 in 10.0 mi NNW 3.5 mph - N/A   Clear
11:51 AM 52.0 °F 25.0 °F 35% 30.46 in 10.0 mi Calm Calm - N/A   Clear
12:51 PM 55.0 °F 21.9 °F 28% 30.44 in 10.0 mi Calm Calm - N/A   Clear
1:51 PM 57.0 °F 21.0 °F 25% 30.41 in 10.0 mi Variable 3.5 mph - N/A   Partly Cloudy
2:51 PM 57.9 °F 24.1 °F 27% 30.40 in 10.0 mi NNW 5.8 mph - N/A   Scattered Clouds
3:51 PM 59.0 °F 24.1 °F 26% 30.37 in 10.0 mi Variable 4.6 mph - N/A   Overcast
4:51 PM 57.0 °F 25.0 °F 29% 30.37 in 10.0 mi NW 5.8 mph - N/A   Overcast
5:51 PM 57.0 °F 23.0 °F 27% 30.36 in 10.0 mi North 5.8 mph - N/A   Partly Cloudy
6:51 PM 55.9 °F 19.9 °F 25% 30.36 in 10.0 mi WNW 5.8 mph - N/A   Clear
7:51 PM 52.0 °F 19.0 °F 27% 30.36 in 10.0 mi Calm Calm - N/A   Clear
8:51 PM 44.1 °F 23.0 °F 43% 30.37 in 10.0 mi Calm Calm - N/A   Clear
9:51 PM 39.0 °F 25.0 °F 57% 30.38 in 10.0 mi Calm Calm - N/A   Clear
10:51 PM 39.0 °F 25.0 °F 57% 30.37 in 10.0 mi Calm Calm - N/A   Clear
11:51 PM 37.0 °F 24.1 °F 59% 30.38 in 10.0 mi Calm Calm - N/A   Clear